Regional Weather Roundup
Issued by NWS Northern Indiana

Home | Current Version | Previous Version | Text Only | Print | Product List | Glossary On
Versions: 1 2 3 4 5 6 7 8 9 10 11 12 13 14 15 16 17 18 19 20 21 22 23 24 25 26 27 28 29 30 31 32 33 34 35 36 37 38 39 40 41 42 43 44 45 46 47 48 49 50
000
ASUS43 KIWX 291010
RWRIWX

KIWX WEATHER ROUNDUP
NATIONAL WEATHER SERVICE NORTHERN INDIANA
600 AM EDT FRI APR 29 2016

NOTE: "FAIR" INDICATES FEW OR NO CLOUDS BELOW 12,000 FEET WITH NO
SIGNIFICANT WEATHER AND/OR OBSTRUCTIONS TO VISIBILITY.

* THESE STATIONS ARE NOT UNDER NWS QUALITY CONTROL. THEY ALSO MAY NOT
  REPORT WEATHER SUCH AS PRECIPITATION OR FOG.

INZ001>027-291100-
NORTHERN INDIANA

CITY           SKY/WX    TMP DP  RH WIND       PRES   REMARKS
VALPARAISO     CLOUDY    45  44  97 N6        30.01S FOG
MICHIGAN CITY* LGT RAIN  43  43 100 W6        30.02S
LAPORTE*       CLOUDY    48  48 100 CALM      30.01S FOG
KNOX*          CLOUDY    46  43  87 N3        30.00S
SOUTH BEND     CLOUDY    46  37  71 SE5       30.01R
GOSHEN         CLOUDY    46  39  76 E5        30.00R
MONTICELLO*    CLOUDY    49  46  87 W6        30.01R FOG
LOGANSPORT*    CLOUDY    46  46 100 SE5       30.01R
ROCHESTER*     CLOUDY    50  45  81 SE5       30.00S
WARSAW*        CLOUDY    45  37  76 E3        30.00S
ANGOLA*        CLOUDY    45  30  57 E3        30.00S
FORT WAYNE     MOCLDY    46  39  76 NE5       30.00S
HUNTINGTON*    CLEAR    N/A N/A N/A CALM      29.99S
MARION*        CLOUDY    46  43  89 E3        30.01R

$$
INZ028>050-291100-
CENTRAL INDIANA

CITY           SKY/WX    TMP DP  RH WIND       PRES   REMARKS
LAFAYETTE      FOG       47  46  97 W3        30.02R VSB 1
KOKOMO*        CLOUDY    48  43  81 SE3       30.00R
MUNCIE*        CLOUDY    49  45  86 CALM      30.00R
INDIANAPOLIS   CLOUDY    49  46  90 W8        30.00R

$$
MIZ043>046-050>051-056>058-064>065-071>073-077>080-291100-
SOUTHWEST LOWER MICHIGAN

CITY           SKY/WX    TMP DP  RH WIND       PRES   REMARKS
BATTLE CREEK   CLOUDY    43  36  76 E6        30.02R
BENTON HARBOR  LGT RAIN  46  40  79 E5        30.01S
COLDWATER*     CLOUDY    45  38  76 E3        30.01R
HILLSDALE*     CLOUDY    44  34  67 CALM      30.00S
HOLLAND        CLOUDY    43  36  76 E6        30.04R
GRAND RAPIDS   CLOUDY    42  35  76 E5        30.03S
KALAMAZOO      CLOUDY    45  36  70 CALM      30.02R
STURGIS*       CLOUDY    45  35  67 CALM      30.00R
THREE RIVERS*  CLOUDY    46  38  75 E3        30.02R

$$
OHZ001>008-015>018-024>025-291100-
NORTHWEST OHIO

CITY           SKY/WX    TMP DP  RH WIND       PRES   REMARKS
WAUSEON*         N/A     45  37  76 NE6       30.01R
DEFIANCE       CLOUDY    47  37  68 NE5       30.01S
FINDLAY        CLOUDY    45  39  79 N5        29.99R
TOLEDO EXPRESS CLOUDY    46  35  65 NE7       30.00R
TOLEDO METCALF CLOUDY    46  35  65 NE7       30.00F
LIMA           CLOUDY    44  43  96 N7        29.98S

$$
AND FOR LAKE MICHIGAN COASTAL AND OPEN LAKE BUOY OBSERVATIONS

STATION/POSITION TEMP    WIND        PRES    VSBY  WAVE
                 AIR SEA DIR/SP/G                  HT/PER
                 (F)     (DEG/KT/KT) (MB)    (MI)  (FT/S)
CALUMET HARBOR    44     320/  5/  9 1015.6R
MICHIGAN CITY     43     240/  7/  8   N/A
BURNS HARBOR      43     320/  7/ 11 1016.9R
SAINT JOSEPH      46      CALM  /  1 1016.3S
SOUTH LAKE BUOY   40 40   40/ 10/ 10 1017.1R         1/ 3
4 MI NW BRIDGMAN  46 47  250/  6/  8   N/A           1/ 4

$$
&&




USA.gov is the U.S. government's official web portal to all federal, state and local government web resources and services.